Location: Dunedin
(45.8670°S, 170.5000°E)
Time: 20:11:18
(UTC+13:00)

SJ-6B - Pass Details

Date: 24 January 2019
Orbit: 511 x 582 km, 97.7° (Epoch: 21 February)

Event Time Altitude Azimuth Distance (km) Brightness Sun altitude
Rises 22:27:02 0° 172° (S) 2,670 6.8 -10.3°
Reaches altitude 10° 22:29:10 10° 176° (S) 1,775 6.0 -10.6°
Maximum altitude 22:32:54 53° 253° (WSW) 652 3.6 -11.1°
Drops below altitude 10° 22:36:36 10° 330° (NNW) 1,767 5.3 -11.6°
Sets 22:38:44 0° 334° (NNW) 2,655 6.1 -11.8°
